Year,Month,Day,Hour,Minute,Value (Times are PST for windgust in km/hr)
2015,08,29,00,06,1.60
2015,08,29,00,14,4.80
2015,08,29,00,15,4.80
2015,08,29,00,27,1.60
2015,08,29,00,31,4.80
2015,08,29,00,32,4.80
2015,08,29,00,35,1.60
2015,08,29,00,37,1.60
2015,08,29,00,38,4.80
2015,08,29,00,39,3.20
2015,08,29,00,40,1.60
2015,08,29,00,41,1.60
2015,08,29,00,42,4.80
2015,08,29,00,43,3.20
2015,08,29,00,45,3.20
2015,08,29,00,46,3.20
2015,08,29,00,47,1.60
2015,08,29,00,48,3.20
2015,08,29,00,49,3.20
2015,08,29,00,51,1.60
2015,08,29,00,55,4.80
2015,08,29,00,56,6.40
2015,08,29,01,08,6.40
2015,08,29,01,09,8.10
2015,08,29,01,10,8.10
2015,08,29,01,11,6.40
2015,08,29,01,12,4.80
2015,08,29,01,13,6.40
2015,08,29,01,14,6.40
2015,08,29,01,15,6.40
2015,08,29,01,16,6.40
2015,08,29,01,17,4.80
2015,08,29,01,18,6.40
2015,08,29,01,19,4.80
2015,08,29,01,20,4.80
2015,08,29,01,21,4.80
2015,08,29,01,22,4.80
2015,08,29,01,23,4.80
2015,08,29,01,24,6.40
2015,08,29,01,25,6.40
2015,08,29,01,26,4.80
2015,08,29,01,27,4.80
2015,08,29,01,28,4.80
2015,08,29,01,29,4.80
2015,08,29,01,30,8.10
2015,08,29,01,31,6.40
2015,08,29,01,32,4.80
2015,08,29,01,33,3.20
2015,08,29,01,34,4.80
2015,08,29,01,35,4.80
2015,08,29,01,36,6.40
2015,08,29,01,37,4.80
2015,08,29,01,39,4.80
2015,08,29,01,40,4.80
2015,08,29,01,41,4.80
2015,08,29,01,42,4.80
2015,08,29,01,43,4.80
2015,08,29,01,44,6.40
2015,08,29,01,45,6.40
2015,08,29,01,46,4.80
2015,08,29,01,47,1.60
2015,08,29,02,01,1.60
2015,08,29,02,09,1.60
2015,08,29,02,10,4.80
2015,08,29,02,11,3.20
2015,08,29,02,13,4.80
2015,08,29,02,14,3.20
2015,08,29,02,15,3.20
2015,08,29,02,16,1.60
2015,08,29,02,17,1.60
2015,08,29,02,18,3.20
2015,08,29,02,19,1.60
2015,08,29,02,20,3.20
2015,08,29,02,22,1.60
2015,08,29,02,23,4.80
2015,08,29,02,24,3.20
2015,08,29,02,25,3.20
2015,08,29,02,26,3.20
2015,08,29,02,27,3.20
2015,08,29,02,28,1.60
2015,08,29,02,29,4.80
2015,08,29,02,30,3.20
2015,08,29,02,31,6.40
2015,08,29,02,32,6.40
2015,08,29,02,33,6.40
2015,08,29,02,34,6.40
2015,08,29,02,35,6.40
2015,08,29,02,36,6.40
2015,08,29,02,37,4.80
2015,08,29,02,38,6.40
2015,08,29,02,39,3.20
2015,08,29,02,40,3.20
2015,08,29,02,41,1.60
2015,08,29,02,46,3.20
2015,08,29,02,47,4.80
2015,08,29,02,48,6.40
2015,08,29,02,49,8.10
2015,08,29,02,50,6.40
2015,08,29,02,51,3.20
2015,08,29,02,54,4.80
2015,08,29,02,55,6.40
2015,08,29,02,56,4.80
2015,08,29,02,57,1.60
2015,08,29,02,58,6.40
2015,08,29,02,59,4.80
2015,08,29,03,00,3.20
2015,08,29,03,01,4.80
2015,08,29,03,02,3.20
2015,08,29,03,03,1.60
2015,08,29,03,04,1.60
2015,08,29,03,06,1.60
2015,08,29,03,07,4.80
2015,08,29,03,08,1.60
2015,08,29,03,10,3.20
2015,08,29,03,11,4.80
2015,08,29,03,12,4.80
2015,08,29,03,14,4.80
2015,08,29,03,15,4.80
2015,08,29,03,16,3.20
2015,08,29,03,17,4.80
2015,08,29,03,18,3.20
2015,08,29,03,19,3.20
2015,08,29,03,20,4.80
2015,08,29,03,21,3.20
2015,08,29,03,24,1.60
2015,08,29,03,30,1.60
2015,08,29,03,31,3.20
2015,08,29,03,32,1.60
2015,08,29,03,33,4.80
2015,08,29,03,34,1.60
2015,08,29,03,35,4.80
2015,08,29,03,36,4.80
2015,08,29,03,37,6.40
2015,08,29,03,38,3.20
2015,08,29,04,01,1.60
2015,08,29,04,02,1.60
2015,08,29,04,07,1.60
2015,08,29,04,10,8.10
2015,08,29,04,11,4.80
2015,08,29,04,12,3.20
2015,08,29,04,13,1.60
2015,08,29,04,14,6.40
2015,08,29,04,15,1.60
2015,08,29,04,16,6.40
2015,08,29,04,18,1.60
2015,08,29,04,20,4.80
2015,08,29,04,21,3.20
2015,08,29,04,22,1.60
2015,08,29,04,23,1.60
2015,08,29,04,24,4.80
2015,08,29,04,25,6.40
2015,08,29,04,26,3.20
2015,08,29,04,27,6.40
2015,08,29,04,28,3.20
2015,08,29,04,29,6.40
2015,08,29,04,35,8.10
2015,08,29,04,36,4.80
2015,08,29,04,37,6.40
2015,08,29,04,38,6.40
2015,08,29,04,39,4.80
2015,08,29,04,40,6.40
2015,08,29,04,41,8.10
2015,08,29,04,43,3.20
2015,08,29,04,44,1.60
2015,08,29,04,45,1.60
2015,08,29,04,46,1.60
2015,08,29,04,47,3.20
2015,08,29,04,48,4.80
2015,08,29,04,49,4.80
2015,08,29,04,51,1.60
2015,08,29,04,54,3.20
2015,08,29,04,55,8.10
2015,08,29,04,56,6.40
2015,08,29,04,58,4.80
2015,08,29,05,00,8.10
2015,08,29,05,01,4.80
2015,08,29,05,03,1.60
2015,08,29,05,05,1.60
2015,08,29,05,09,1.60
2015,08,29,05,10,3.20
2015,08,29,05,11,1.60
2015,08,29,05,12,4.80
2015,08,29,05,19,1.60
2015,08,29,05,21,1.60
2015,08,29,05,26,3.20
2015,08,29,05,27,3.20
2015,08,29,05,28,6.40
2015,08,29,05,32,1.60
2015,08,29,05,33,1.60
2015,08,29,05,36,4.80
2015,08,29,05,37,4.80
2015,08,29,05,38,3.20
2015,08,29,05,39,3.20
2015,08,29,05,40,6.40
2015,08,29,05,41,6.40
2015,08,29,05,42,6.40
2015,08,29,05,44,3.20
2015,08,29,05,46,1.60
2015,08,29,05,47,3.20
2015,08,29,05,48,1.60
2015,08,29,05,49,4.80
2015,08,29,05,50,8.10
2015,08,29,05,51,14.50
2015,08,29,05,52,11.30
2015,08,29,05,53,14.50
2015,08,29,05,54,9.60
2015,08,29,05,55,19.30
2015,08,29,05,56,16.10
2015,08,29,05,57,8.10
2015,08,29,05,58,20.90
2015,08,29,05,59,9.60
2015,08,29,06,00,6.40
2015,08,29,06,01,4.80
2015,08,29,06,02,8.10
2015,08,29,06,03,11.30
2015,08,29,06,04,4.80
2015,08,29,06,05,6.40
2015,08,29,06,06,4.80
2015,08,29,06,07,4.80
2015,08,29,06,08,6.40
2015,08,29,06,09,8.10
2015,08,29,06,10,4.80
2015,08,29,06,11,4.80
2015,08,29,06,12,3.20
2015,08,29,06,13,4.80
2015,08,29,06,14,3.20
2015,08,29,06,15,3.20
2015,08,29,06,16,3.20
2015,08,29,06,18,1.60
2015,08,29,06,22,4.80
2015,08,29,06,23,4.80
2015,08,29,06,24,4.80
2015,08,29,06,25,4.80
2015,08,29,06,26,1.60
2015,08,29,06,32,3.20
2015,08,29,06,33,3.20
2015,08,29,06,34,3.20
2015,08,29,06,35,1.60
2015,08,29,06,37,1.60
2015,08,29,06,38,1.60
2015,08,29,06,39,1.60
2015,08,29,06,42,6.40
2015,08,29,06,43,4.80
2015,08,29,06,44,6.40
2015,08,29,06,45,4.80
2015,08,29,06,46,4.80
2015,08,29,06,47,3.20
2015,08,29,06,48,6.40
2015,08,29,06,49,3.20
2015,08,29,06,50,3.20
2015,08,29,06,51,6.40
2015,08,29,06,52,9.60
2015,08,29,06,53,8.10
2015,08,29,06,54,11.30
2015,08,29,06,55,9.60
2015,08,29,06,56,9.60
2015,08,29,06,57,8.10
2015,08,29,06,58,6.40
2015,08,29,06,59,14.50
2015,08,29,07,00,9.60
2015,08,29,07,01,8.10
2015,08,29,07,02,6.40
2015,08,29,07,03,3.20
2015,08,29,07,04,8.10
2015,08,29,07,05,9.60
2015,08,29,07,06,8.10
2015,08,29,07,07,9.60
2015,08,29,07,08,16.10
2015,08,29,07,09,11.30
2015,08,29,07,10,16.10
2015,08,29,07,11,11.30
2015,08,29,07,12,17.70
2015,08,29,07,13,16.10
2015,08,29,07,14,14.50
2015,08,29,07,15,17.70
2015,08,29,07,16,16.10
2015,08,29,07,17,11.30
2015,08,29,07,18,9.60
2015,08,29,07,19,16.10
2015,08,29,07,20,16.10
2015,08,29,07,21,19.30
2015,08,29,07,22,17.70
2015,08,29,07,23,8.10
2015,08,29,07,24,11.30
2015,08,29,07,25,16.10
2015,08,29,07,26,8.10
2015,08,29,07,27,9.60
2015,08,29,07,28,14.50
2015,08,29,07,29,8.10
2015,08,29,07,30,6.40
2015,08,29,07,31,8.10
2015,08,29,07,32,14.50
2015,08,29,07,33,17.70
2015,08,29,07,34,17.70
2015,08,29,07,35,11.30
2015,08,29,07,36,11.30
2015,08,29,07,37,9.60
2015,08,29,07,38,20.90
2015,08,29,07,39,16.10
2015,08,29,07,40,8.10
2015,08,29,07,41,11.30
2015,08,29,07,42,14.50
2015,08,29,07,43,19.30
2015,08,29,07,44,14.50
2015,08,29,07,45,9.60
2015,08,29,07,46,4.80
2015,08,29,07,47,11.30
2015,08,29,07,48,12.90
2015,08,29,07,49,11.30
2015,08,29,07,50,16.10
2015,08,29,07,51,17.70
2015,08,29,07,52,11.30
2015,08,29,07,53,11.30
2015,08,29,07,54,4.80
2015,08,29,07,55,3.20
2015,08,29,07,56,4.80
2015,08,29,07,57,8.10
2015,08,29,07,58,6.40
2015,08,29,07,59,6.40
2015,08,29,08,00,4.80
2015,08,29,08,01,4.80
2015,08,29,08,02,11.30
2015,08,29,08,03,4.80
2015,08,29,08,05,3.20
2015,08,29,08,06,6.40
2015,08,29,08,07,6.40
2015,08,29,08,08,6.40
2015,08,29,08,09,6.40
2015,08,29,08,10,4.80
2015,08,29,08,11,9.60
2015,08,29,08,12,9.60
2015,08,29,08,13,14.50
2015,08,29,08,14,4.80
2015,08,29,08,15,4.80
2015,08,29,08,16,6.40
2015,08,29,08,17,16.10
2015,08,29,08,18,9.60
2015,08,29,08,19,17.70
2015,08,29,08,20,9.60
2015,08,29,08,21,9.60
2015,08,29,08,22,11.30
2015,08,29,08,23,3.20
2015,08,29,08,24,1.60
2015,08,29,08,25,4.80
2015,08,29,08,26,9.60
2015,08,29,08,27,6.40
2015,08,29,08,28,9.60
2015,08,29,08,29,11.30
2015,08,29,08,30,3.20
2015,08,29,08,31,3.20
2015,08,29,08,32,3.20
2015,08,29,08,33,8.10
2015,08,29,08,34,11.30
2015,08,29,08,35,6.40
2015,08,29,08,36,6.40
2015,08,29,08,37,16.10
2015,08,29,08,38,11.30
2015,08,29,08,39,8.10
2015,08,29,08,40,6.40
2015,08,29,08,41,11.30
2015,08,29,08,42,8.10
2015,08,29,08,43,17.70
2015,08,29,08,44,17.70
2015,08,29,08,45,14.50
2015,08,29,08,46,8.10
2015,08,29,08,47,19.30
2015,08,29,08,48,17.70
2015,08,29,08,49,20.90
2015,08,29,08,50,19.30
2015,08,29,08,51,12.90
2015,08,29,08,52,22.50
2015,08,29,08,53,14.50
2015,08,29,08,54,22.50
2015,08,29,08,55,19.30
2015,08,29,08,56,8.10
2015,08,29,08,57,3.20
2015,08,29,08,58,9.60
2015,08,29,08,59,19.30
2015,08,29,09,00,11.30
2015,08,29,09,01,14.50
2015,08,29,09,02,9.60
2015,08,29,09,03,9.60
2015,08,29,09,04,11.30
2015,08,29,09,05,14.50
2015,08,29,09,06,16.10
2015,08,29,09,07,9.60
2015,08,29,09,08,14.50
2015,08,29,09,09,11.30
2015,08,29,09,10,30.60
2015,08,29,09,11,25.70
2015,08,29,09,12,17.70
2015,08,29,09,13,14.50
2015,08,29,09,14,22.50
2015,08,29,09,15,11.30
2015,08,29,09,16,11.30
2015,08,29,09,17,16.10
2015,08,29,09,18,17.70
2015,08,29,09,19,17.70
2015,08,29,09,20,16.10
2015,08,29,09,21,16.10
2015,08,29,09,22,16.10
2015,08,29,09,23,11.30
2015,08,29,09,24,8.10
2015,08,29,09,25,20.90
2015,08,29,09,26,19.30
2015,08,29,09,27,16.10
2015,08,29,09,28,24.20
2015,08,29,09,29,17.70
2015,08,29,09,30,19.30
2015,08,29,09,31,24.20
2015,08,29,09,32,19.30
2015,08,29,09,33,22.50
2015,08,29,09,34,32.20
2015,08,29,09,35,20.90
2015,08,29,09,36,9.60
2015,08,29,09,37,25.70
2015,08,29,09,38,22.50
2015,08,29,09,39,25.70
2015,08,29,09,40,24.20
2015,08,29,09,41,24.20
2015,08,29,09,42,25.70
2015,08,29,09,43,17.70
2015,08,29,09,44,20.90
2015,08,29,09,45,24.20
2015,08,29,09,46,16.10
2015,08,29,09,47,20.90
2015,08,29,09,48,25.70
2015,08,29,09,49,27.40
2015,08,29,09,50,19.30
2015,08,29,09,51,17.70
2015,08,29,09,52,25.70
2015,08,29,09,53,19.30
2015,08,29,09,54,22.50
2015,08,29,09,55,19.30
2015,08,29,09,56,33.80
2015,08,29,09,57,27.40
2015,08,29,09,58,19.30
2015,08,29,09,59,20.90
2015,08,29,10,00,27.40
2015,08,29,10,01,30.60
2015,08,29,10,02,29.00
2015,08,29,10,03,27.40
2015,08,29,10,04,27.40
2015,08,29,10,05,20.90
2015,08,29,10,06,30.60
2015,08,29,10,07,20.90
2015,08,29,10,08,12.90
2015,08,29,10,09,22.50
2015,08,29,10,10,14.50
2015,08,29,10,11,25.70
2015,08,29,10,12,16.10
2015,08,29,10,13,14.50
2015,08,29,10,14,22.50
2015,08,29,10,15,14.50
2015,08,29,10,16,24.20
2015,08,29,10,17,38.60
2015,08,29,10,18,22.50
2015,08,29,10,19,19.30
2015,08,29,10,20,22.50
2015,08,29,10,21,29.00
2015,08,29,10,22,27.40
2015,08,29,10,23,25.70
2015,08,29,10,24,33.80
2015,08,29,10,25,22.50
2015,08,29,10,26,35.40
2015,08,29,10,27,29.00
2015,08,29,10,28,24.20
2015,08,29,10,29,24.20
2015,08,29,10,30,30.60
2015,08,29,10,31,22.50
2015,08,29,10,32,35.40
2015,08,29,10,33,17.70
2015,08,29,10,34,30.60
2015,08,29,10,35,25.70
2015,08,29,10,36,24.20
2015,08,29,10,37,37.00
2015,08,29,10,38,25.70
2015,08,29,10,39,20.90
2015,08,29,10,40,29.00
2015,08,29,10,41,19.30
2015,08,29,10,42,20.90
2015,08,29,10,43,25.70
2015,08,29,10,44,38.60
2015,08,29,10,45,19.30
2015,08,29,10,46,37.00
2015,08,29,10,47,20.90
2015,08,29,10,48,25.70
2015,08,29,10,49,27.40
2015,08,29,10,50,30.60
2015,08,29,10,51,38.60
2015,08,29,10,52,40.20
2015,08,29,10,53,37.00
2015,08,29,10,54,43.50
2015,08,29,10,55,35.40
2015,08,29,10,56,30.60
2015,08,29,10,57,29.00
2015,08,29,10,58,40.20
2015,08,29,10,59,43.50
2015,08,29,11,00,46.70
2015,08,29,11,01,40.20
2015,08,29,11,02,38.60
2015,08,29,11,03,35.40
2015,08,29,11,04,33.80
2015,08,29,11,05,37.00
2015,08,29,11,06,37.00
2015,08,29,11,07,29.00
2015,08,29,11,08,32.20
2015,08,29,11,09,17.70
2015,08,29,11,10,22.50
2015,08,29,11,11,30.60
2015,08,29,11,12,27.40
2015,08,29,11,13,24.20
2015,08,29,11,14,27.40
2015,08,29,11,15,32.20
2015,08,29,11,16,37.00
2015,08,29,11,17,35.40
2015,08,29,11,18,25.70
2015,08,29,11,19,30.60
2015,08,29,11,20,38.60
2015,08,29,11,21,29.00
2015,08,29,11,22,35.40
2015,08,29,11,23,25.70
2015,08,29,11,24,27.40
2015,08,29,11,25,33.80
2015,08,29,11,26,22.50
2015,08,29,11,27,33.80
2015,08,29,11,28,24.20
2015,08,29,11,29,30.60
2015,08,29,11,30,29.00
2015,08,29,11,31,37.00
2015,08,29,11,32,19.30
2015,08,29,11,33,17.70
2015,08,29,11,34,22.50
2015,08,29,11,35,25.70
2015,08,29,11,36,24.20
2015,08,29,11,37,24.20
2015,08,29,11,38,29.00
2015,08,29,11,39,35.40
2015,08,29,11,40,20.90
2015,08,29,11,41,30.60
2015,08,29,11,42,24.20
2015,08,29,11,43,25.70
2015,08,29,11,44,20.90
2015,08,29,11,45,19.30
2015,08,29,11,46,32.20
2015,08,29,11,47,24.20
2015,08,29,11,48,19.30
2015,08,29,11,49,20.90
2015,08,29,11,50,30.60
2015,08,29,11,51,20.90
2015,08,29,11,52,19.30
2015,08,29,11,53,24.20
2015,08,29,11,54,30.60
2015,08,29,11,55,24.20
2015,08,29,11,56,19.30
2015,08,29,11,57,24.20
2015,08,29,11,58,22.50
2015,08,29,11,59,25.70
2015,08,29,12,00,12.90
2015,08,29,12,01,6.40
2015,08,29,12,02,14.50
2015,08,29,12,03,16.10
2015,08,29,12,04,35.40
2015,08,29,12,05,29.00
2015,08,29,12,06,25.70
2015,08,29,12,07,22.50
2015,08,29,12,08,19.30
2015,08,29,12,09,24.20
2015,08,29,12,10,17.70
2015,08,29,12,11,16.10
2015,08,29,12,12,11.30
2015,08,29,12,13,16.10
2015,08,29,12,14,22.50
2015,08,29,12,15,17.70
2015,08,29,12,16,24.20
2015,08,29,12,17,20.90
2015,08,29,12,18,12.90
2015,08,29,12,19,19.30
2015,08,29,12,20,16.10
2015,08,29,12,21,9.60
2015,08,29,12,22,9.60
2015,08,29,12,23,4.80
2015,08,29,12,24,12.90
2015,08,29,12,25,14.50
2015,08,29,12,26,12.90
2015,08,29,12,27,9.60
2015,08,29,12,28,14.50
2015,08,29,12,29,17.70
2015,08,29,12,30,17.70
2015,08,29,12,31,17.70
2015,08,29,12,32,11.30
2015,08,29,12,33,11.30
2015,08,29,12,34,16.10
2015,08,29,12,35,11.30
2015,08,29,12,36,9.60
2015,08,29,12,37,9.60
2015,08,29,12,38,8.10
2015,08,29,12,40,3.20
2015,08,29,12,41,14.50
2015,08,29,12,42,6.40
2015,08,29,12,43,17.70
2015,08,29,12,44,19.30
2015,08,29,12,45,8.10
2015,08,29,12,46,8.10
2015,08,29,12,47,9.60
2015,08,29,12,48,9.60
2015,08,29,12,49,9.60
2015,08,29,12,50,9.60
2015,08,29,12,51,8.10
2015,08,29,12,52,9.60
2015,08,29,12,54,12.90
2015,08,29,12,55,9.60
2015,08,29,12,56,6.40
2015,08,29,12,57,8.10
2015,08,29,12,58,8.10
2015,08,29,12,59,4.80
2015,08,29,13,00,1.60
2015,08,29,13,01,3.20
2015,08,29,13,02,3.20
2015,08,29,13,03,1.60
2015,08,29,13,04,4.80
2015,08,29,13,05,1.60
2015,08,29,13,06,6.40
2015,08,29,13,07,8.10
2015,08,29,13,08,6.40
2015,08,29,13,09,6.40
2015,08,29,13,10,8.10
2015,08,29,13,11,9.60
2015,08,29,13,12,11.30
2015,08,29,13,13,11.30
2015,08,29,13,14,11.30
2015,08,29,13,15,11.30
2015,08,29,13,16,6.40
2015,08,29,13,17,6.40
2015,08,29,13,18,6.40
2015,08,29,13,19,8.10
2015,08,29,13,20,8.10
2015,08,29,13,21,9.60
2015,08,29,13,22,14.50
2015,08,29,13,23,9.60
2015,08,29,13,24,16.10
2015,08,29,13,25,16.10
2015,08,29,13,26,14.50
2015,08,29,13,27,17.70
2015,08,29,13,28,11.30
2015,08,29,13,29,9.60
2015,08,29,13,30,11.30
2015,08,29,13,31,11.30
2015,08,29,13,32,16.10
2015,08,29,13,33,17.70
2015,08,29,13,34,16.10
2015,08,29,13,35,22.50
2015,08,29,13,36,14.50
2015,08,29,13,37,20.90
2015,08,29,13,38,17.70
2015,08,29,13,39,19.30
2015,08,29,13,40,22.50
2015,08,29,13,41,16.10
2015,08,29,13,42,11.30
2015,08,29,13,43,17.70
2015,08,29,13,44,14.50
2015,08,29,13,45,17.70
2015,08,29,13,46,19.30
2015,08,29,13,47,16.10
2015,08,29,13,48,16.10
2015,08,29,13,49,25.70
2015,08,29,13,50,20.90
2015,08,29,13,51,20.90
2015,08,29,13,52,24.20
2015,08,29,13,53,22.50
2015,08,29,13,54,35.40
2015,08,29,13,55,37.00
2015,08,29,13,56,41.80
2015,08,29,13,57,45.10
2015,08,29,13,58,38.60
2015,08,29,13,59,49.90
2015,08,29,14,00,46.70
2015,08,29,14,01,48.30
2015,08,29,14,02,53.10
2015,08,29,14,03,49.90
2015,08,29,14,04,48.30
2015,08,29,14,05,53.10
2015,08,29,14,06,43.50
2015,08,29,14,07,40.20
2015,08,29,14,08,35.40
2015,08,29,14,09,33.80
2015,08,29,14,10,46.70
2015,08,29,14,11,38.60
2015,08,29,14,12,41.80
2015,08,29,14,13,40.20
2015,08,29,14,14,45.10
2015,08,29,14,15,45.10
2015,08,29,14,16,33.80
2015,08,29,14,17,45.10
2015,08,29,14,18,40.20
2015,08,29,14,19,37.00
2015,08,29,14,20,56.30
2015,08,29,14,21,38.60
2015,08,29,14,22,46.70
2015,08,29,14,23,38.60
2015,08,29,14,24,40.20
2015,08,29,14,25,38.60
2015,08,29,14,26,46.70
2015,08,29,14,27,32.20
2015,08,29,14,28,38.60
2015,08,29,14,29,51.50
2015,08,29,14,30,33.80
2015,08,29,14,31,35.40
2015,08,29,14,32,38.60
2015,08,29,14,33,30.60
2015,08,29,14,34,45.10
2015,08,29,14,35,41.80
2015,08,29,14,36,32.20
2015,08,29,14,37,46.70
2015,08,29,14,38,29.00
2015,08,29,14,39,25.70
2015,08,29,14,40,24.20
2015,08,29,14,41,24.20
2015,08,29,14,42,30.60
2015,08,29,14,43,35.40
2015,08,29,14,44,35.40
2015,08,29,14,45,49.90
2015,08,29,14,46,38.60
2015,08,29,14,47,33.80
2015,08,29,14,48,29.00
2015,08,29,14,49,33.80
2015,08,29,14,50,25.70
2015,08,29,14,51,30.60
2015,08,29,14,52,20.90
2015,08,29,14,53,20.90
2015,08,29,14,54,37.00
2015,08,29,14,55,43.50
2015,08,29,14,56,29.00
2015,08,29,14,57,25.70
2015,08,29,14,58,22.50
2015,08,29,14,59,35.40
2015,08,29,15,00,30.60
2015,08,29,15,01,30.60
2015,08,29,15,02,29.00
2015,08,29,15,03,24.20
2015,08,29,15,04,22.50
2015,08,29,15,05,25.70
2015,08,29,15,06,16.10
2015,08,29,15,07,6.40
2015,08,29,15,08,11.30
2015,08,29,15,09,20.90
2015,08,29,15,10,20.90
2015,08,29,15,11,16.10
2015,08,29,15,12,22.50
2015,08,29,15,13,25.70
2015,08,29,15,14,19.30
2015,08,29,15,15,29.00
2015,08,29,15,16,32.20
2015,08,29,15,17,19.30
2015,08,29,15,18,19.30
2015,08,29,15,19,17.70
2015,08,29,15,20,19.30
2015,08,29,15,21,16.10
2015,08,29,15,22,24.20
2015,08,29,15,23,24.20
2015,08,29,15,24,17.70
2015,08,29,15,25,17.70
2015,08,29,15,26,16.10
2015,08,29,15,27,22.50
2015,08,29,15,28,17.70
2015,08,29,15,29,22.50
2015,08,29,15,30,11.30
2015,08,29,15,31,25.70
2015,08,29,15,32,19.30
2015,08,29,15,33,29.00
2015,08,29,15,34,29.00
2015,08,29,15,35,29.00
2015,08,29,15,36,22.50
2015,08,29,15,37,24.20
2015,08,29,15,38,22.50
2015,08,29,15,39,11.30
2015,08,29,15,40,16.10
2015,08,29,15,41,19.30
2015,08,29,15,42,22.50
2015,08,29,15,43,14.50
2015,08,29,15,44,20.90
2015,08,29,15,45,16.10
2015,08,29,15,46,11.30
2015,08,29,15,47,12.90
2015,08,29,15,48,17.70
2015,08,29,15,49,14.50
2015,08,29,15,50,14.50
2015,08,29,15,51,11.30
2015,08,29,15,52,9.60
2015,08,29,15,53,20.90
2015,08,29,15,54,19.30
2015,08,29,15,55,11.30
2015,08,29,15,56,9.60
2015,08,29,15,57,11.30
2015,08,29,15,58,9.60
2015,08,29,15,59,11.30
2015,08,29,16,00,11.30
2015,08,29,16,01,11.30
2015,08,29,16,02,12.90
2015,08,29,16,03,14.50
2015,08,29,16,04,8.10
2015,08,29,16,05,17.70
2015,08,29,16,06,17.70
2015,08,29,16,07,9.60
2015,08,29,16,08,17.70
2015,08,29,16,09,20.90
2015,08,29,16,10,8.10
2015,08,29,16,11,8.10
2015,08,29,16,12,8.10
2015,08,29,16,13,6.40
2015,08,29,16,14,4.80
2015,08,29,16,15,3.20
2015,08,29,16,16,1.60
2015,08,29,16,17,4.80
2015,08,29,16,18,3.20
2015,08,29,16,19,8.10
2015,08,29,16,20,8.10
2015,08,29,16,21,8.10
2015,08,29,16,22,6.40
2015,08,29,16,23,4.80
2015,08,29,16,24,14.50
2015,08,29,16,25,14.50
2015,08,29,16,26,9.60
2015,08,29,16,27,6.40
2015,08,29,16,28,6.40
2015,08,29,16,29,8.10
2015,08,29,16,30,11.30
2015,08,29,16,31,9.60
2015,08,29,16,32,8.10
2015,08,29,16,33,1.60
2015,08,29,16,34,1.60
2015,08,29,16,35,4.80
2015,08,29,16,36,4.80
2015,08,29,16,37,4.80
2015,08,29,16,38,4.80
2015,08,29,16,39,3.20
2015,08,29,16,41,1.60
2015,08,29,16,42,4.80
2015,08,29,16,43,1.60
2015,08,29,16,44,4.80
2015,08,29,16,45,4.80
2015,08,29,16,46,9.60
2015,08,29,16,47,8.10
2015,08,29,16,48,6.40
2015,08,29,16,49,3.20
2015,08,29,16,50,4.80
2015,08,29,16,51,3.20
2015,08,29,16,52,4.80
2015,08,29,16,53,6.40
2015,08,29,16,54,4.80
2015,08,29,16,55,4.80
2015,08,29,16,56,1.60
2015,08,29,16,57,1.60
2015,08,29,16,58,1.60
2015,08,29,17,02,1.60
2015,08,29,17,04,1.60
2015,08,29,17,05,1.60
2015,08,29,17,07,1.60
2015,08,29,17,08,1.60
2015,08,29,17,09,1.60
2015,08,29,17,11,1.60
2015,08,29,17,17,1.60
2015,08,29,17,28,1.60
2015,08,29,17,29,1.60
2015,08,29,17,34,1.60
2015,08,29,17,35,3.20
2015,08,29,17,36,3.20
2015,08,29,17,37,1.60
2015,08,29,17,38,1.60
2015,08,29,17,40,1.60
2015,08,29,17,42,1.60
2015,08,29,17,45,1.60
2015,08,29,17,48,1.60
2015,08,29,17,49,3.20
2015,08,29,17,51,1.60
2015,08,29,17,52,1.60
2015,08,29,17,53,6.40
2015,08,29,17,54,6.40
2015,08,29,17,57,4.80
2015,08,29,17,59,3.20
2015,08,29,18,00,3.20
2015,08,29,18,01,9.60
2015,08,29,18,02,8.10
2015,08,29,18,03,6.40
2015,08,29,18,04,4.80
2015,08,29,18,06,1.60
2015,08,29,18,07,4.80
2015,08,29,18,08,4.80
2015,08,29,18,09,8.10
2015,08,29,18,10,14.50
2015,08,29,18,11,14.50
2015,08,29,18,12,14.50
2015,08,29,18,13,17.70
2015,08,29,18,14,11.30
2015,08,29,18,15,8.10
2015,08,29,18,16,4.80
2015,08,29,18,17,1.60
2015,08,29,18,19,4.80
2015,08,29,18,20,11.30
2015,08,29,18,21,8.10
2015,08,29,18,22,4.80
2015,08,29,18,23,3.20
2015,08,29,18,24,8.10
2015,08,29,18,25,6.40
2015,08,29,18,26,3.20
2015,08,29,18,27,8.10
2015,08,29,18,28,11.30
2015,08,29,18,29,9.60
2015,08,29,18,30,9.60
2015,08,29,18,31,8.10
2015,08,29,18,32,8.10
2015,08,29,18,33,8.10
2015,08,29,18,34,1.60
2015,08,29,18,35,9.60
2015,08,29,18,36,4.80
2015,08,29,18,37,1.60
2015,08,29,18,38,1.60
2015,08,29,18,39,6.40
2015,08,29,18,40,4.80
2015,08,29,18,41,1.60
2015,08,29,18,42,3.20
2015,08,29,18,43,3.20
2015,08,29,18,44,9.60
2015,08,29,18,45,8.10
2015,08,29,18,46,8.10
2015,08,29,18,47,6.40
2015,08,29,18,48,4.80
2015,08,29,18,49,1.60
2015,08,29,18,50,4.80
2015,08,29,18,51,4.80
2015,08,29,18,52,6.40
2015,08,29,18,53,4.80
2015,08,29,18,54,3.20
2015,08,29,18,55,3.20
2015,08,29,18,56,1.60
2015,08,29,18,57,1.60
2015,08,29,18,58,3.20
2015,08,29,18,59,3.20
2015,08,29,19,00,3.20
2015,08,29,19,01,1.60
2015,08,29,19,02,1.60
2015,08,29,19,03,3.20
2015,08,29,19,04,4.80
2015,08,29,19,05,3.20
2015,08,29,19,07,1.60
2015,08,29,19,08,3.20
2015,08,29,19,09,4.80
2015,08,29,19,10,3.20
2015,08,29,19,11,3.20
2015,08,29,19,12,3.20
2015,08,29,19,13,1.60
2015,08,29,19,14,1.60
2015,08,29,19,15,3.20
2015,08,29,19,16,4.80
2015,08,29,19,17,4.80
2015,08,29,19,18,4.80
2015,08,29,19,20,1.60
2015,08,29,19,21,4.80
2015,08,29,19,22,3.20
2015,08,29,19,23,3.20
2015,08,29,19,25,3.20
2015,08,29,19,26,4.80
2015,08,29,19,28,1.60
2015,08,29,19,34,1.60
2015,08,29,19,35,3.20
2015,08,29,19,36,1.60
2015,08,29,19,41,1.60
2015,08,29,20,17,1.60
2015,08,29,20,22,1.60
2015,08,29,20,23,1.60
2015,08,29,20,24,3.20
2015,08,29,20,25,3.20
2015,08,29,20,26,6.40
2015,08,29,20,27,4.80
2015,08,29,20,28,6.40
2015,08,29,20,29,6.40
2015,08,29,20,30,6.40
2015,08,29,20,31,6.40
2015,08,29,20,32,6.40
2015,08,29,20,33,6.40
2015,08,29,20,34,4.80
2015,08,29,20,35,4.80
2015,08,29,20,36,6.40
2015,08,29,20,37,6.40
2015,08,29,20,38,8.10
2015,08,29,20,39,6.40
2015,08,29,20,40,8.10
2015,08,29,20,41,11.30
2015,08,29,20,42,9.60
2015,08,29,20,43,11.30
2015,08,29,20,44,19.30
2015,08,29,20,45,12.90
2015,08,29,20,46,11.30
2015,08,29,20,47,12.90
2015,08,29,20,48,14.50
2015,08,29,20,49,11.30
2015,08,29,20,50,11.30
2015,08,29,20,51,9.60
2015,08,29,20,52,6.40
2015,08,29,20,53,11.30
2015,08,29,20,54,9.60
2015,08,29,20,55,11.30
2015,08,29,20,56,16.10
2015,08,29,20,57,16.10
2015,08,29,20,58,14.50
2015,08,29,20,59,8.10
2015,08,29,21,00,9.60
2015,08,29,21,01,9.60
2015,08,29,21,02,14.50
2015,08,29,21,03,8.10
2015,08,29,21,04,8.10
2015,08,29,21,05,8.10
2015,08,29,21,06,8.10
2015,08,29,21,07,6.40
2015,08,29,21,08,8.10
2015,08,29,21,09,8.10
2015,08,29,21,10,3.20
2015,08,29,21,11,1.60
2015,08,29,21,13,4.80
2015,08,29,21,14,4.80
2015,08,29,21,15,3.20
2015,08,29,21,30,1.60
2015,08,29,21,31,4.80
2015,08,29,21,32,6.40
2015,08,29,21,33,4.80
2015,08,29,21,34,4.80
2015,08,29,21,35,3.20
2015,08,29,21,43,1.60
2015,08,29,23,18,1.60
